Regional Weather Roundup
Issued by NWS

Home | Current Version | Previous Version | Graphics & Text | Print | Product List | Glossary On
Versions: 1 2 3 4 5 6 7 8 9 10 11 12 13 14 15 16 17 18 19 20 21 22 23 24 25 26 27 28 29 30 31 32 33 34 35 36 37 38 39 40 41 42 43 44 45 46 47 48 49 50
000
ASUS43 KOAX 291302
RWRNE

WEATHER ROUNDUP FOR NEBRASKA
NATIONAL WEATHER SERVICE OMAHA NE
800 AM CDT FRI JUL 29 2016

NOTES: SATELLITE DATA IS BEING USED TO AUGMENT CLOUD COVER ABOVE
       12000 FEET.
       "FAIR" INDICATES FEW OR NO CLOUDS BELOW 12,000 FEET WITH NO
       SIGNIFICANT WEATHER AND/OR OBSTRUCTIONS TO VISIBILITY.

  * THESE STATIONS DO NOT REPORT WEATHER SUCH AS RAIN...SNOW OR FOG.

NEZ001>004-019>022-054>056-291400-
NEBRASKA PANHANDLE

CITY           SKY/WX    TMP DP  RH WIND       PRES   REMARKS
SCOTTSBLUFF    SUNNY     61  58  90 CALM      30.15S
ALLIANCE       FOG       56  55  97 CALM      30.14S VSB<1/4
CHADRON        SUNNY     58  55  90 CALM      30.13S
SIDNEY         SUNNY     61  59  93 CALM      30.17S
$$

NEZ057>060-069>072-079>082-291400-
SOUTHWEST NEBRASKA

CITY           SKY/WX    TMP DP  RH WIND       PRES   REMARKS
NORTH PLATTE   FOG       62  60  93 N3        30.12S VSB<1/4
IMPERIAL       SUNNY     62  59  90 N3        30.13R
LEXINGTON      CLOUDY    62  60  95 CALM      30.12R
MCCOOK         CLOUDY    62  60  93 CALM      30.12R
OGALLALA       SUNNY     62  60  93 CALM      30.13S FOG
$$

NEZ005>010-023>029-035>040-094-291400-
NORTH CENTRAL NEBRASKA

CITY           SKY/WX    TMP DP  RH WIND       PRES   REMARKS
AINSWORTH      CLOUDY    62  62 100 CALM      30.12S
BROKEN BOW     CLOUDY    62  62 100 N3        30.11S FOG
O`NEILL        CLOUDY    65  63  94 CALM      30.10S
ORD            CLOUDY    65  62  90 CALM      30.09R
THEDFORD       CLOUDY    62  62  99 E3        30.14S
$$

NEZ041-046>049-061>064-073>077-083>087-291400-
SOUTH CENTRAL NEBRASKA

CITY           SKY/WX    TMP DP  RH WIND       PRES   REMARKS
GRAND ISLAND   CLOUDY    67  63  87 CALM      30.10R
AURORA         CLOUDY    66  65  98 CALM      30.09R
HASTINGS       CLOUDY    67  64  90 N3        30.11R
HEBRON         CLOUDY    65  63  93 CALM      30.08R
HOLDREGE       MOSUNNY   65  63  92 N5        30.10R
KEARNEY *      MOSUNNY   64   9  11 NW5       30.12R
YORK           CLOUDY    66  66 100 CALM      30.09R
$$

NEZ011>018-030>034-042>045-291400-
NORTHEAST NEBRASKA

CITY           SKY/WX    TMP DP  RH WIND       PRES   REMARKS
NORFOLK        CLOUDY    66  60  81 NE3       30.08R
ALBION         CLOUDY    65  62  89 N6        30.09R
BLAIR          CLOUDY    67  64  91 N6        30.06R
FREMONT        CLOUDY    66  64  90 NE5       30.06R
TEKAMAH        CLOUDY    67  63  87 N10       30.05R
WAYNE          CLOUDY    64  62  93 NE5       30.09R
$$

NEZ050>053-065>068-078-088>093-291400-
SOUTHEAST NEBRASKA

CITY           SKY/WX    TMP DP  RH WIND       PRES   REMARKS
LINCOLN        CLOUDY    69  65  86 N6        30.08R
OMAHA EPPLEY   CLOUDY    68  61  78 N3        30.06R
BEATRICE       CLOUDY    65  63  90 NE6       30.07R
FALLS CITY     CLOUDY    69  66  90 N3        30.03S
NEBRASKA CITY  CLOUDY    67  67 100 CALM      30.08R
PLATTSMOUTH    CLOUDY    68  65  92 E3        30.07R
$$

NEZ044-045-051>053-067-291400-
OMAHA AREA

CITY           SKY/WX    TMP DP  RH WIND       PRES   REMARKS
OMAHA EPPLEY   CLOUDY    68  61  78 N3        30.06R
BLAIR          CLOUDY    67  64  91 N6        30.06R
FREMONT        CLOUDY    66  64  90 NE5       30.06R
MILLARD        CLOUDY    69  65  87 CALM      30.06R
OFFUTT AFB     CLOUDY    68  63  84 NE1       30.06R
PLATTSMOUTH    CLOUDY    68  65  92 E3        30.07R
WAHOO          CLOUDY    67  65  91 CALM      30.07R
$$




USA.gov is the U.S. government's official web portal to all federal, state and local government web resources and services.